Wind_Speed
49 49 49 48 46 46 45 43 42 41 39 38 37 35 34 34 32 31 31 29 28 28 27 26 26 26 26 26 27 27 27 28 29 30 31 32 33 34 35 36 37 38 39
52 52 51 50 49 48 47 46 44 43 42 40 39 37 36 35 34 33 32 31 30 29 28 28 27 27 27 28 28 28 28 30 31 31 32 34 35 36 37 38 39 40 41
54 54 54 53 52 51 50 48 47 46 44 43 41 39 38 37 36 34 34 33 32 31 30 29 29 29 29 29 29 29 30 31 32 33 34 35 36 37 38 39 40 42 43
56 56 56 55 55 54 52 50 49 48 46 45 43 41 40 38 37 36 35 34 33 33 32 31 30 30 31 30 31 31 31 32 33 34 35 36 37 38 39 40 42 43 44
58 58 58 57 57 56 54 52 51 50 48 46 45 43 42 40 39 37 36 35 34 34 33 32 32 32 31 31 31 32 32 33 34 35 36 37 38 39 40 41 43 44 45
60 61 60 59 60 59 57 54 52 51 50 49 47 44 43 42 41 39 37 36 35 35 34 33 33 33 32 32 33 32 33 34 35 36 37 38 39 40 41 42 44 45 46
61 62 62 61 62 61 59 56 53 53 52 51 49 46 45 44 42 40 38 37 36 35 35 34 33 33 33 33 34 34 34 35 36 37 38 39 40 41 42 44 45 46 47
62 61 62 62 63 62 60 58 56 54 53 51 49 48 47 46 44 42 40 38 37 37 36 35 35 34 34 34 34 35 36 36 37 38 39 40 41 42 44 45 45 47 48
62 62 62 63 63 63 62 61 58 55 54 53 51 50 48 45 44 43 41 40 39 38 37 37 36 35 35 35 35 36 37 38 38 39 40 41 42 43 44 45 46 47 48
62 62 62 64 63 63 64 62 59 56 55 54 53 51 49 45 45 43 42 41 39 39 38 38 37 36 35 35 36 37 37 38 39 40 40 42 43 44 45 46 47 48 50
61 61 61 61 61 61 62 62 60 58 56 55 54 52 51 48 45 44 42 42 41 40 39 38 37 36 36 36 37 37 38 39 40 40 41 42 43 44 45 46 48 49 50
59 59 59 59 60 60 61 62 61 60 58 56 54 52 51 50 47 45 42 42 42 40 39 38 37 37 36 37 38 38 38 39 40 41 41 42 43 44 45 47 48 50 51
56 57 55 57 60 61 61 61 60 60 58 56 53 52 52 50 48 46 44 43 41 40 39 38 38 37 37 37 37 38 38 39 40 40 41 42 43 44 46 47 49 50 51
52 53 53 55 58 60 60 60 58 59 57 55 53 52 52 50 47 46 45 43 41 41 40 38 37 37 36 37 37 38 38 39 40 41 41 42 43 45 46 48 49 51 52
51 51 52 52 55 56 56 58 58 58 56 55 53 52 51 50 47 46 45 44 42 41 39 38 38 36 36 37 37 38 39 40 40 40 41 43 44 45 47 48 50 52 53
48 50 50 51 53 54 53 56 57 57 56 55 54 52 51 50 48 46 45 42 41 39 38 38 37 37 37 38 38 38 39 40 40 41 42 43 44 45 47 48 50 52 54
45 46 47 48 50 51 51 53 55 55 54 54 54 51 50 50 48 46 45 43 41 39 37 37 37 37 37 38 38 37 38 39 40 41 42 43 44 45 47 49 51 52 54
44 43 43 45 47 48 49 50 51 52 52 51 51 51 50 49 48 46 44 43 41 39 38 37 37 37 37 38 37 37 37 38 39 41 42 43 44 45 47 49 51 53 55
42 42 41 42 44 45 46 49 49 49 48 47 48 48 49 48 47 47 46 43 40 39 38 37 36 36 37 37 36 36 37 38 39 40 41 42 43 45 47 49 51 53 55
41 41 41 41 43 43 45 46 48 48 46 46 46 46 46 45 45 46 44 43 41 38 37 36 35 35 35 35 35 35 36 37 38 39 40 42 43 44 47 49 51 53 54
40 40 40 41 42 44 45 45 46 45 45 44 44 43 43 42 43 43 42 40 39 37 36 36 35 35 34 33 34 34 35 36 37 38 40 41 43 45 47 49 50 51 52
38 39 40 41 42 44 44 44 45 44 43 43 43 43 42 40 40 41 40 38 38 37 36 36 35 34 32 32 32 33 34 36 37 37 39 41 42 45 47 48 49 50 52
36 37 39 39 40 42 43 43 42 41 41 41 42 43 41 40 38 37 37 36 37 37 37 36 34 33 32 32 32 33 34 35 36 37 39 41 43 44 45 46 48 50 52
35 36 37 38 40 41 42 44 44 42 42 41 40 39 39 39 37 35 35 35 35 36 35 34 33 32 32 33 33 33 33 35 36 37 38 40 42 43 44 45 47 50 51
34 34 34 37 39 40 42 42 44 43 41 40 39 38 37 37 35 34 35 34 34 33 33 32 31 31 32 33 33 32 33 34 36 37 39 40 40 41 43 45 47 49 50
34 33 33 35 38 40 41 41 41 41 41 40 39 37 35 34 33 34 34 33 33 31 30 29 30 31 32 33 32 32 33 35 36 37 37 38 38 40 42 45 47 47 48
Wind_Direction
251 251 251 250 250 252 253 253 253 252 252 253 252 253 254 256 259 261 263 265 267 270 274 278 282 286 289 294 298 301 303 305 305 306 308 310 311 311 312 313 314 314 314
250 250 249 248 248 249 251 252 252 251 252 251 251 251 253 254 256 259 260 263 266 268 271 275 280 283 287 292 296 298 301 303 305 305 307 309 310 310 311 312 313 314 314
250 249 248 247 247 247 248 250 251 250 251 251 251 251 252 253 255 257 258 260 263 266 269 272 277 281 286 290 294 296 299 301 304 305 306 308 309 310 311 311 312 313 313
248 248 248 247 246 246 246 247 249 249 250 250 251 251 251 252 253 255 257 259 261 264 267 271 275 279 284 289 293 295 297 300 302 304 305 307 308 309 310 311 312 313 313
246 246 246 246 244 244 244 245 247 248 248 248 250 250 250 251 252 254 255 257 260 263 266 270 273 278 282 287 291 293 296 298 301 303 305 306 307 308 309 311 312 312 312
246 245 244 245 244 243 242 243 244 246 246 247 248 248 249 250 251 252 254 256 258 261 265 269 273 277 281 285 289 291 294 297 300 302 303 305 306 307 309 310 312 312 312
245 244 244 244 243 242 241 241 243 243 244 245 246 247 248 249 250 252 253 255 257 259 263 267 272 276 280 283 287 289 293 297 299 301 302 304 305 307 309 310 311 311 312
244 243 242 242 241 240 239 240 241 241 242 244 245 245 246 247 248 251 253 254 256 258 261 265 270 275 279 282 286 289 292 295 298 300 301 303 305 307 309 310 310 311 312
243 241 241 241 241 240 238 238 239 240 240 241 243 244 245 247 248 250 252 253 256 258 260 264 269 273 277 281 285 288 292 295 297 299 301 303 305 307 309 309 310 311 312
241 240 240 239 240 239 236 235 236 238 239 239 241 243 244 246 247 247 250 253 255 257 260 263 267 271 275 280 284 287 291 295 296 298 301 303 305 307 308 309 310 311 312
240 238 238 238 238 236 234 233 234 236 237 238 240 242 243 244 245 246 249 252 254 256 259 262 266 270 275 279 283 287 291 294 296 298 300 303 305 306 307 308 310 311 312
238 237 236 236 236 234 233 233 233 234 235 235 238 240 241 243 244 244 248 251 254 257 259 262 266 270 274 278 283 287 290 293 295 297 300 302 304 306 307 308 310 312 313
238 237 236 236 235 233 232 231 232 233 233 234 236 238 239 241 242 244 245 250 253 256 259 261 265 269 273 278 282 286 290 293 295 297 300 302 304 305 307 309 311 312 313
237 237 236 236 235 233 232 231 231 231 232 233 234 236 238 238 240 243 245 248 251 254 257 260 263 268 272 277 282 285 289 291 294 297 299 302 303 305 307 309 311 312 313
237 236 236 235 233 232 233 231 230 231 232 232 232 234 236 237 240 242 244 247 250 254 257 260 263 267 272 276 280 284 288 291 293 297 300 302 303 305 308 310 311 313 314
237 237 238 235 232 232 232 231 231 231 231 230 232 235 236 236 238 241 243 245 249 253 256 259 263 268 272 275 279 283 287 290 293 297 299 301 304 306 308 310 312 313 314
236 236 236 233 231 231 230 229 229 230 229 230 232 234 236 236 237 240 241 244 247 252 256 257 261 265 271 276 279 283 286 289 293 297 299 302 304 307 309 311 312 314 315
235 235 232 231 229 230 228 228 227 228 228 230 232 233 235 236 237 238 241 243 246 250 254 256 260 264 269 275 278 282 286 290 293 297 300 303 305 308 310 311 313 315 316
235 233 230 229 228 228 228 227 226 226 227 229 230 232 234 236 237 239 240 242 245 248 252 256 259 263 269 274 278 282 287 290 294 297 301 304 306 308 310 312 314 316 317
234 231 229 228 226 227 225 225 224 225 225 227 228 230 233 235 236 238 239 241 243 246 250 255 260 265 269 274 278 281 286 291 295 298 302 305 307 309 311 313 316 317 319
231 230 229 225 225 225 223 223 223 222 224 225 226 228 231 233 235 237 237 239 242 246 251 255 261 266 269 274 277 281 286 292 295 300 304 306 307 310 313 315 317 319 321
230 229 228 226 225 223 221 223 222 222 222 224 226 228 228 230 234 235 236 238 242 246 252 256 260 264 270 274 277 282 287 291 296 301 304 306 309 311 314 316 318 320 322
230 229 226 223 221 221 221 220 220 221 222 224 226 226 228 230 231 234 236 239 242 246 251 256 261 264 269 274 278 284 288 293 297 301 304 307 310 313 315 317 319 321 323
228 225 222 220 220 219 219 221 222 222 223 225 225 225 226 227 229 233 236 238 242 245 251 256 261 265 269 272 279 284 289 294 297 302 305 308 311 313 316 318 321 323 325
225 222 220 219 219 217 217 221 222 221 222 223 223 224 224 224 227 231 234 237 240 244 249 254 261 265 270 274 280 285 291 296 299 302 306 308 311 314 317 320 322 325 326
224 222 221 220 218 217 218 219 220 220 221 222 221 221 222 224 228 231 233 236 238 243 248 252 259 265 270 273 279 286 292 297 299 302 306 308 311 314 318 321 323 326 327
Height
5767 5770 5772 5775 5779 5781 5784 5787 5790 5792 5795 5797 5799 5802 5804 5805 5807 5808 5809 5810 5811 5811 5811 5811 5810 5810 5809 5808 5806 5804 5802 5800 5798 5795 5792 5789 5786 5782 5779 5775 5771 5766 5762
5755 5758 5761 5764 5767 5771 5774 5777 5780 5783 5786 5789 5791 5794 5796 5798 5800 5801 5803 5804 5805 5805 5805 5805 5805 5804 5803 5802 5801 5799 5797 5795 5792 5789 5786 5783 5780 5776 5772 5768 5764 5759 5755
5742 5745 5749 5752 5756 5759 5763 5767 5770 5773 5777 5780 5783 5786 5788 5790 5792 5794 5796 5797 5798 5799 5799 5799 5799 5798 5798 5796 5795 5793 5791 5789 5786 5783 5780 5777 5773 5770 5766 5761 5757 5752 5747
5727 5731 5735 5740 5743 5747 5751 5756 5760 5763 5767 5771 5774 5777 5779 5781 5784 5786 5788 5790 5791 5792 5792 5793 5793 5792 5791 5790 5789 5787 5785 5783 5780 5777 5774 5770 5767 5763 5759 5754 5750 5745 5740
5713 5717 5722 5726 5730 5734 5739 5744 5748 5752 5756 5760 5764 5767 5770 5773 5775 5778 5780 5782 5783 5785 5785 5786 5786 5786 5785 5784 5783 5781 5779 5776 5774 5771 5767 5764 5760 5756 5752 5747 5742 5737 5731
5697 5702 5707 5712 5717 5721 5727 5732 5736 5741 5745 5749 5753 5757 5761 5764 5766 5769 5772 5774 5776 5777 5778 5779 5779 5779 5778 5777 5776 5774 5772 5770 5767 5764 5760 5757 5753 5749 5744 5739 5734 5729 5723
5680 5686 5691 5697 5702 5707 5714 5719 5724 5729 5734 5739 5743 5747 5751 5754 5758 5761 5763 5766 5768 5770 5771 5771 5772 5772 5771 5771 5769 5767 5765 5763 5760 5757 5753 5750 5746 5741 5736 5731 5726 5720 5715
5663 5669 5675 5682 5687 5693 5699 5706 5712 5717 5722 5728 5733 5736 5739 5744 5748 5752 5755 5757 5760 5761 5763 5763 5764 5764 5764 5763 5762 5760 5758 5755 5753 5749 5746 5742 5738 5733 5728 5723 5717 5712 5706
5646 5652 5659 5665 5672 5678 5685 5692 5699 5705 5711 5716 5721 5726 5730 5735 5739 5743 5746 5749 5751 5753 5755 5755 5756 5756 5756 5756 5754 5753 5750 5748 5745 5742 5738 5734 5730 5725 5720 5715 5709 5703 5697
5628 5635 5642 5649 5656 5663 5670 5678 5685 5691 5698 5704 5709 5715 5721 5726 5729 5734 5737 5740 5742 5744 5746 5747 5748 5748 5748 5748 5747 5745 5743 5740 5737 5734 5730 5726 5722 5717 5711 5706 5700 5694 5688
5611 5618 5625 5633 5640 5648 5656 5664 5671 5678 5685 5692 5698 5704 5710 5715 5719 5724 5728 5731 5733 5735 5737 5739 5740 5740 5740 5740 5739 5737 5735 5732 5729 5726 5722 5718 5714 5708 5703 5697 5691 5685 5678
5596 5602 5610 5618 5626 5634 5641 5649 5657 5665 5672 5680 5686 5693 5699 5704 5709 5713 5718 5721 5724 5727 5729 5730 5731 5732 5732 5732 5731 5729 5727 5724 5721 5718 5714 5710 5705 5700 5694 5689 5683 5676 5669
5582 5589 5596 5604 5611 5619 5627 5635 5643 5652 5659 5667 5675 5682 5687 5693 5697 5702 5707 5711 5715 5718 5720 5722 5723 5724 5724 5723 5722 5721 5719 5716 5713 5710 5706 5701 5697 5691 5686 5680 5674 5667 5660
5569 5576 5583 5590 5597 5605 5614 5622 5630 5639 5647 5655 5663 5670 5676 5682 5687 5692 5698 5702 5705 5709 5711 5713 5714 5715 5715 5715 5714 5712 5710 5708 5705 5701 5697 5693 5688 5683 5677 5671 5665 5657 5650
5558 5563 5570 5577 5584 5592 5600 5609 5618 5627 5635 5644 5651 5658 5665 5671 5677 5683 5688 5693 5697 5700 5703 5704 5706 5706 5706 5706 5705 5704 5702 5699 5696 5693 5689 5685 5680 5674 5669 5662 5655 5648 5640
5547 5552 5558 5565 5572 5580 5588 5597 5606 5615 5623 5632 5640 5647 5653 5660 5667 5673 5678 5683 5687 5691 5693 5696 5697 5698 5698 5698 5697 5695 5694 5691 5688 5685 5681 5676 5671 5666 5660 5653 5646 5638 5630
5536 5542 5548 5555 5561 5569 5578 5586 5595 5604 5612 5621 5629 5637 5643 5650 5656 5662 5668 5673 5677 5681 5684 5687 5688 5689 5689 5689 5688 5687 5685 5683 5680 5676 5672 5667 5662 5657 5651 5644 5636 5628 5620
5527 5532 5537 5545 5552 5560 5568 5576 5585 5593 5602 5611 5619 5627 5633 5640 5647 5653 5658 5664 5668 5672 5675 5678 5679 5680 5681 5681 5680 5679 5677 5674 5671 5668 5663 5659 5654 5648 5641 5635 5627 5619 5610
5517 5522 5528 5536 5543 5551 5558 5567 5576 5585 5593 5602 5610 5617 5624 5630 5637 5643 5649 5654 5659 5663 5666 5669 5671 5672 5672 5672 5671 5670 5668 5666 5663 5659 5655 5650 5645 5639 5632 5625 5617 5609 5600
5508 5514 5520 5527 5535 5542 5550 5558 5567 5576 5584 5592 5601 5608 5614 5621 5627 5633 5639 5645 5649 5654 5657 5660 5662 5663 5664 5663 5663 5662 5660 5657 5654 5650 5646 5641 5636 5630 5624 5617 5609 5600 5590
5499 5505 5512 5519 5526 5534 5542 5550 5559 5567 5576 5583 5591 5599 5606 5612 5617 5624 5630 5636 5641 5645 5649 5652 5653 5655 5655 5655 5655 5653 5651 5649 5645 5641 5637 5632 5627 5621 5614 5607 5599 5590 5581
5491 5497 5504 5511 5518 5526 5535 5543 5551 5560 5567 5575 5583 5590 5597 5603 5609 5615 5621 5627 5632 5637 5641 5643 5645 5646 5647 5647 5646 5645 5643 5641 5638 5634 5628 5623 5618 5612 5605 5598 5590 5581 5572
5484 5490 5496 5503 5511 5519 5527 5535 5544 5551 5559 5567 5574 5582 5589 5596 5602 5608 5613 5619 5624 5628 5632 5635 5637 5638 5639 5640 5639 5637 5635 5632 5629 5625 5620 5615 5610 5603 5597 5589 5581 5573 5563
5477 5483 5489 5496 5504 5512 5520 5528 5536 5543 5551 5559 5567 5574 5582 5588 5595 5600 5606 5611 5616 5621 5624 5627 5629 5631 5631 5631 5630 5629 5626 5624 5620 5616 5612 5607 5601 5595 5588 5581 5573 5564 5555
5471 5476 5482 5490 5497 5505 5513 5521 5529 5536 5544 5552 5560 5567 5574 5581 5587 5593 5598 5604 5608 5613 5616 5619 5621 5622 5623 5623 5622 5621 5619 5616 5613 5609 5604 5599 5594 5588 5581 5573 5565 5556 5547
5464 5470 5476 5483 5491 5498 5506 5513 5521 5529 5537 5545 5553 5560 5567 5574 5580 5585 5591 5596 5601 5605 5608 5610 5613 5614 5615 5615 5614 5613 5612 5609 5605 5601 5596 5592 5586 5580 5574 5566 5558 5549 5539